Time,TemperatureF,DewpointF,PressureIn,WindDirection,WindDirectionDegrees,WindSpeedMPH,WindSpeedGustMPH,Humidity,HourlyPrecipIn,Conditions,Clouds,dailyrainin,SoftwareType,DateUTC
2013-03-09 00:02:00,33.4,26.4,29.44,WSW,247,0.0,0.0,76,0.00,,,0.00,LWC V2.10 B1813,2013-03-09 07:02:00,
2013-03-09 00:07:00,32.9,26.4,29.44,WSW,247,0.0,0.0,77,0.00,,,0.00,LWC V2.10 B1813,2013-03-09 07:07:00,
2013-03-09 00:12:00,32.7,26.3,29.44,WSW,247,0.0,0.0,77,0.00,,,0.00,LWC V2.10 B1813,2013-03-09 07:12:00,
2013-03-09 00:17:00,32.2,25.8,29.44,WSW,247,0.0,0.0,77,0.00,,,0.00,LWC V2.10 B1813,2013-03-09 07:17:00,
2013-03-09 00:22:00,31.8,25.4,29.44,WSW,247,0.0,0.0,77,0.00,,,0.00,LWC V2.10 B1813,2013-03-09 07:22:00,
2013-03-09 00:27:00,31.8,25.4,29.44,WSW,247,0.0,0.0,77,0.00,,,0.00,LWC V2.10 B1813,2013-03-09 07:27:00,
2013-03-09 00:32:00,31.5,25.6,29.43,WSW,247,0.0,0.0,78,0.00,,,0.00,LWC V2.10 B1813,2013-03-09 07:32:00,
2013-03-09 00:37:00,31.3,25.2,29.43,WSW,247,0.0,0.0,78,0.00,,,0.00,LWC V2.10 B1813,2013-03-09 07:37:00,
2013-03-09 00:42:00,30.9,24.9,29.43,WSW,247,0.0,0.0,78,0.00,,,0.00,LWC V2.10 B1813,2013-03-09 07:42:00,
2013-03-09 00:47:00,30.9,24.9,29.43,WSW,247,0.0,0.0,78,0.00,,,0.00,LWC V2.10 B1813,2013-03-09 07:47:00,
2013-03-09 00:52:00,30.9,24.9,29.43,WSW,247,0.0,0.0,78,0.00,,,0.00,LWC V2.10 B1813,2013-03-09 07:52:00,
2013-03-09 00:57:00,30.9,25.2,29.42,WSW,247,0.0,0.0,79,0.00,,,0.00,LWC V2.10 B1813,2013-03-09 07:57:00,
2013-03-09 01:02:00,30.7,25.0,29.42,WSW,247,0.0,0.0,79,0.00,,,0.00,LWC V2.10 B1813,2013-03-09 08:02:00,
2013-03-09 01:07:00,30.7,25.0,29.43,WSW,247,0.0,0.0,79,0.00,,,0.00,LWC V2.10 B1813,2013-03-09 08:07:00,
2013-03-09 01:12:00,30.7,25.0,29.43,WSW,247,0.0,0.0,79,0.00,,,0.00,LWC V2.10 B1813,2013-03-09 08:12:00,
2013-03-09 01:17:00,30.7,25.0,29.43,WSW,247,0.0,0.0,79,0.00,,,0.00,LWC V2.10 B1813,2013-03-09 08:17:00,
2013-03-09 01:22:00,30.6,24.8,29.43,WSW,247,0.0,0.0,79,0.00,,,0.00,LWC V2.10 B1813,2013-03-09 08:22:00,
2013-03-09 01:27:00,30.7,25.0,29.43,WSW,247,0.0,0.0,79,0.00,,,0.00,LWC V2.10 B1813,2013-03-09 08:27:00,
2013-03-09 01:32:00,30.6,25.0,29.43,WSW,247,0.0,0.0,79,0.00,,,0.00,LWC V2.10 B1813,2013-03-09 08:32:00,
2013-03-09 01:37:00,30.7,25.0,29.43,WSW,247,0.0,0.0,79,0.00,,,0.00,LWC V2.10 B1813,2013-03-09 08:37:00,
2013-03-09 01:42:00,30.7,25.3,29.43,WSW,247,0.0,0.0,80,0.00,,,0.00,LWC V2.10 B1813,2013-03-09 08:42:00,
2013-03-09 01:47:00,30.7,25.3,29.44,WSW,247,0.0,0.0,80,0.00,,,0.00,LWC V2.10 B1813,2013-03-09 08:47:00,
2013-03-09 01:52:00,30.7,25.3,29.43,WSW,247,0.0,0.0,80,0.00,,,0.00,LWC V2.10 B1813,2013-03-09 08:52:00,
2013-03-09 01:57:00,30.7,25.3,29.43,WSW,247,0.0,0.0,80,0.00,,,0.00,LWC V2.10 B1813,2013-03-09 08:57:00,
2013-03-09 02:02:00,30.9,25.5,29.43,WSW,247,0.0,0.0,80,0.00,,,0.00,LWC V2.10 B1813,2013-03-09 09:02:00,
2013-03-09 02:07:00,30.9,25.5,29.42,WSW,247,0.0,0.0,80,0.00,,,0.00,LWC V2.10 B1813,2013-03-09 09:07:00,
2013-03-09 02:12:00,30.7,25.3,29.42,WSW,247,0.0,0.0,80,0.00,,,0.00,LWC V2.10 B1813,2013-03-09 09:12:00,
2013-03-09 02:17:00,30.7,25.3,29.42,WSW,247,0.0,0.0,80,0.00,,,0.00,LWC V2.10 B1813,2013-03-09 09:17:00,
2013-03-09 02:22:00,30.9,25.5,29.42,WSW,247,0.0,0.0,80,0.00,,,0.00,LWC V2.10 B1813,2013-03-09 09:22:00,
2013-03-09 02:27:00,30.9,25.5,29.42,WSW,247,0.0,0.0,80,0.00,,,0.00,LWC V2.10 B1813,2013-03-09 09:27:00,
2013-03-09 02:32:00,31.3,25.7,29.42,WSW,247,0.0,0.0,80,0.00,,,0.00,LWC V2.10 B1813,2013-03-09 09:32:00,
2013-03-09 02:37:00,31.3,25.9,29.41,WSW,247,0.0,0.0,80,0.00,,,0.00,LWC V2.10 B1813,2013-03-09 09:37:00,
2013-03-09 02:42:00,31.6,26.2,29.41,WSW,247,0.0,0.0,80,0.00,,,0.00,LWC V2.10 B1813,2013-03-09 09:42:00,
2013-03-09 02:47:00,31.6,26.2,29.41,WSW,247,0.0,0.0,80,0.00,,,0.00,LWC V2.10 B1813,2013-03-09 09:47:00,
2013-03-09 02:52:00,31.8,26.4,29.41,WSW,247,0.0,0.0,80,0.00,,,0.00,LWC V2.10 B1813,2013-03-09 09:52:00,
2013-03-09 02:57:00,31.8,26.4,29.41,WSW,247,0.0,0.0,80,0.00,,,0.00,LWC V2.10 B1813,2013-03-09 09:57:00,
2013-03-09 03:02:00,31.8,26.2,29.41,WSW,247,0.0,0.0,80,0.00,,,0.00,LWC V2.10 B1813,2013-03-09 10:02:00,
2013-03-09 03:07:00,31.6,26.2,29.41,WSW,247,0.0,0.0,80,0.00,,,0.00,LWC V2.10 B1813,2013-03-09 10:07:00,
2013-03-09 03:12:00,31.5,26.1,29.40,WSW,247,0.0,0.0,80,0.00,,,0.00,LWC V2.10 B1813,2013-03-09 10:12:00,
2013-03-09 03:17:00,31.3,25.9,29.40,WSW,247,0.0,0.0,80,0.00,,,0.00,LWC V2.10 B1813,2013-03-09 10:17:00,
2013-03-09 03:22:00,31.3,25.9,29.41,WSW,247,0.0,0.0,80,0.00,,,0.00,LWC V2.10 B1813,2013-03-09 10:22:00,
2013-03-09 03:27:00,31.3,25.9,29.41,WSW,247,0.0,0.0,80,0.00,,,0.00,LWC V2.10 B1813,2013-03-09 10:27:00,
2013-03-09 03:32:00,31.5,26.1,29.41,WSW,247,0.0,0.0,80,0.00,,,0.00,LWC V2.10 B1813,2013-03-09 10:32:00,
2013-03-09 03:37:00,31.5,26.1,29.41,WSW,247,0.0,0.0,80,0.00,,,0.00,LWC V2.10 B1813,2013-03-09 10:37:00,
2013-03-09 03:42:00,31.6,26.2,29.41,WSW,247,0.0,0.0,80,0.00,,,0.00,LWC V2.10 B1813,2013-03-09 10:42:00,
2013-03-09 03:47:00,31.6,26.2,29.41,WSW,247,0.0,0.0,80,0.00,,,0.00,LWC V2.10 B1813,2013-03-09 10:47:00,
2013-03-09 03:52:00,31.8,26.4,29.42,WSW,247,0.0,0.0,80,0.00,,,0.00,LWC V2.10 B1813,2013-03-09 10:52:00,
2013-03-09 03:57:00,31.8,26.4,29.42,WSW,247,0.0,0.0,80,0.00,,,0.00,LWC V2.10 B1813,2013-03-09 10:57:00,
2013-03-09 04:02:00,32.0,26.6,29.42,WSW,247,0.0,0.0,80,0.00,,,0.00,LWC V2.10 B1813,2013-03-09 11:02:00,
2013-03-09 04:07:00,32.2,26.8,29.42,WSW,247,0.0,0.0,80,0.00,,,0.00,LWC V2.10 B1813,2013-03-09 11:07:00,
2013-03-09 04:12:00,32.2,26.8,29.43,WSW,247,0.0,0.0,80,0.00,,,0.00,LWC V2.10 B1813,2013-03-09 11:12:00,
2013-03-09 04:17:00,32.4,26.9,29.43,WSW,247,0.0,0.0,80,0.00,,,0.00,LWC V2.10 B1813,2013-03-09 11:17:00,
2013-03-09 04:22:00,32.5,27.1,29.43,WSW,247,0.0,0.0,80,0.00,,,0.00,LWC V2.10 B1813,2013-03-09 11:22:00,
2013-03-09 04:27:00,32.7,27.1,29.43,WSW,247,0.0,0.0,80,0.00,,,0.00,LWC V2.10 B1813,2013-03-09 11:27:00,
2013-03-09 04:32:00,32.7,27.2,29.43,WSW,247,0.0,0.0,80,0.00,,,0.00,LWC V2.10 B1813,2013-03-09 11:32:00,
2013-03-09 04:37:00,32.7,27.2,29.43,WSW,247,0.0,0.0,80,0.00,,,0.00,LWC V2.10 B1813,2013-03-09 11:37:00,
2013-03-09 04:42:00,32.9,27.4,29.43,WSW,247,0.0,0.0,80,0.00,,,0.00,LWC V2.10 B1813,2013-03-09 11:42:00,
2013-03-09 04:47:00,32.9,27.4,29.44,WSW,247,0.0,0.0,80,0.00,,,0.00,LWC V2.10 B1813,2013-03-09 11:47:00,
2013-03-09 04:52:00,33.1,27.9,29.44,WSW,247,0.0,0.0,81,0.00,,,0.00,LWC V2.10 B1813,2013-03-09 11:52:00,
2013-03-09 04:57:00,33.1,27.9,29.44,WSW,247,0.0,0.0,81,0.00,,,0.00,LWC V2.10 B1813,2013-03-09 11:57:00,
2013-03-09 05:02:00,33.1,27.9,29.44,WSW,247,0.0,0.0,81,0.00,,,0.00,LWC V2.10 B1813,2013-03-09 12:02:00,
2013-03-09 05:07:00,33.1,27.9,29.44,WSW,247,0.0,0.0,81,0.00,,,0.00,LWC V2.10 B1813,2013-03-09 12:07:00,
2013-03-09 05:12:00,33.1,27.9,29.44,WSW,247,0.0,0.0,81,0.00,,,0.00,LWC V2.10 B1813,2013-03-09 12:12:00,
2013-03-09 05:17:00,33.1,28.1,29.45,WSW,247,0.0,0.0,82,0.00,,,0.00,LWC V2.10 B1813,2013-03-09 12:17:00,
2013-03-09 05:22:00,33.1,28.1,29.45,WSW,247,0.0,0.0,82,0.00,,,0.00,LWC V2.10 B1813,2013-03-09 12:22:00,
2013-03-09 05:27:00,33.1,28.1,29.44,WSW,247,0.0,0.0,82,0.00,,,0.00,LWC V2.10 B1813,2013-03-09 12:27:00,
2013-03-09 05:32:00,33.1,28.1,29.44,WSW,247,0.0,0.0,82,0.00,,,0.00,LWC V2.10 B1813,2013-03-09 12:32:00,
2013-03-09 05:37:00,33.1,28.1,29.44,WSW,247,0.0,0.0,82,0.00,,,0.00,LWC V2.10 B1813,2013-03-09 12:37:00,
2013-03-09 05:42:00,33.3,28.3,29.44,WSW,247,0.0,0.0,82,0.00,,,0.00,LWC V2.10 B1813,2013-03-09 12:42:00,
2013-03-09 05:47:00,33.3,28.6,29.44,WSW,247,0.0,0.0,83,0.00,,,0.00,LWC V2.10 B1813,2013-03-09 12:47:00,
2013-03-09 05:52:00,33.3,28.6,29.44,WSW,247,0.0,0.0,83,0.00,,,0.00,LWC V2.10 B1813,2013-03-09 12:52:00,
2013-03-09 05:57:00,33.3,28.6,29.44,WSW,247,0.0,0.0,83,0.00,,,0.00,LWC V2.10 B1813,2013-03-09 12:57:00,
2013-03-09 06:02:00,33.3,28.6,29.45,WSW,247,0.0,0.0,83,0.00,,,0.00,LWC V2.10 B1813,2013-03-09 13:02:00,
2013-03-09 06:07:00,33.1,28.4,29.45,WSW,247,0.0,0.0,83,0.00,,,0.00,LWC V2.10 B1813,2013-03-09 13:07:00,
2013-03-09 06:12:00,33.1,28.4,29.45,WSW,247,0.0,0.0,83,0.00,,,0.00,LWC V2.10 B1813,2013-03-09 13:12:00,
2013-03-09 06:17:00,33.1,28.4,29.45,WSW,247,0.0,0.0,83,0.00,,,0.00,LWC V2.10 B1813,2013-03-09 13:17:00,
2013-03-09 06:22:00,33.1,28.4,29.45,WSW,247,0.0,0.0,83,0.00,,,0.00,LWC V2.10 B1813,2013-03-09 13:22:00,
2013-03-09 06:27:00,33.1,28.4,29.45,WSW,247,0.0,0.0,84,0.00,,,0.00,LWC V2.10 B1813,2013-03-09 13:27:00,
2013-03-09 06:32:00,32.9,28.6,29.45,WSW,247,0.0,0.0,84,0.00,,,0.00,LWC V2.10 B1813,2013-03-09 13:32:00,
2013-03-09 06:37:00,32.9,28.6,29.46,WSW,247,0.0,0.0,84,0.00,,,0.00,LWC V2.10 B1813,2013-03-09 13:37:00,
2013-03-09 06:42:00,32.9,28.6,29.46,WSW,247,0.0,0.0,84,0.00,,,0.00,LWC V2.10 B1813,2013-03-09 13:42:00,
2013-03-09 06:47:00,32.9,28.6,29.46,WSW,247,0.0,0.0,84,0.00,,,0.00,LWC V2.10 B1813,2013-03-09 13:47:00,
2013-03-09 06:52:00,32.9,28.6,29.46,WSW,247,0.0,0.0,84,0.00,,,0.00,LWC V2.10 B1813,2013-03-09 13:52:00,
2013-03-09 06:57:00,33.1,28.7,29.46,WSW,247,0.0,0.0,84,0.00,,,0.00,LWC V2.10 B1813,2013-03-09 13:57:00,
2013-03-09 07:02:00,33.1,28.7,29.46,WSW,247,0.0,0.0,84,0.00,,,0.00,LWC V2.10 B1813,2013-03-09 14:02:00,
2013-03-09 07:07:00,32.9,28.6,29.46,WSW,247,0.0,0.0,84,0.00,,,0.00,LWC V2.10 B1813,2013-03-09 14:07:00,
2013-03-09 07:12:00,33.1,28.7,29.46,WSW,247,0.0,0.0,84,0.00,,,0.00,LWC V2.10 B1813,2013-03-09 14:12:00,
2013-03-09 07:17:00,33.1,28.7,29.47,WSW,247,0.0,0.0,84,0.00,,,0.00,LWC V2.10 B1813,2013-03-09 14:17:00,
2013-03-09 07:22:00,33.4,29.0,29.46,WSW,247,0.0,0.0,84,0.00,,,0.00,LWC V2.10 B1813,2013-03-09 14:22:00,
2013-03-09 07:27:00,33.3,28.9,29.47,WSW,247,0.0,0.0,84,0.00,,,0.00,LWC V2.10 B1813,2013-03-09 14:27:00,
2013-03-09 07:32:00,33.4,29.0,29.47,WSW,247,0.0,0.0,84,0.00,,,0.00,LWC V2.10 B1813,2013-03-09 14:32:00,
2013-03-09 07:37:00,33.4,29.0,29.47,WSW,247,0.0,0.0,84,0.00,,,0.00,LWC V2.10 B1813,2013-03-09 14:37:00,
2013-03-09 07:42:00,33.4,29.3,29.47,WSW,247,0.0,0.0,85,0.00,,,0.00,LWC V2.10 B1813,2013-03-09 14:42:00,
2013-03-09 07:47:00,33.6,29.5,29.47,WSW,247,0.0,0.0,85,0.00,,,0.00,LWC V2.10 B1813,2013-03-09 14:47:00,
2013-03-09 07:52:00,33.6,29.5,29.47,WSW,247,0.0,0.0,85,0.00,,,0.00,LWC V2.10 B1813,2013-03-09 14:52:00,
2013-03-09 07:57:00,33.4,29.3,29.47,WSW,247,0.0,0.0,85,0.00,,,0.00,LWC V2.10 B1813,2013-03-09 14:57:00,
2013-03-09 08:02:00,33.4,29.3,29.48,South,180,0.0,0.0,85,0.00,,,0.00,LWC V2.10 B1813,2013-03-09 15:02:00,
2013-03-09 08:07:00,33.4,29.3,29.48,South,180,0.0,0.0,85,0.00,,,0.00,LWC V2.10 B1813,2013-03-09 15:07:00,
2013-03-09 08:12:00,33.4,29.3,29.48,SSE,157,0.0,0.0,85,0.00,,,0.00,LWC V2.10 B1813,2013-03-09 15:12:00,
2013-03-09 08:17:00,33.6,29.5,29.49,SSE,157,0.0,0.0,85,0.00,,,0.00,LWC V2.10 B1813,2013-03-09 15:17:00,
2013-03-09 08:22:00,33.6,29.5,29.49,SSE,157,0.0,0.0,85,0.00,,,0.00,LWC V2.10 B1813,2013-03-09 15:22:00,
2013-03-09 08:27:00,33.6,29.5,29.48,SSE,157,0.0,0.0,85,0.00,,,0.00,LWC V2.10 B1813,2013-03-09 15:27:00,
2013-03-09 08:32:00,33.6,29.5,29.49,SSE,157,0.0,0.0,85,0.00,,,0.00,LWC V2.10 B1813,2013-03-09 15:32:00,
2013-03-09 08:37:00,33.8,29.7,29.49,SSE,157,0.0,0.0,85,0.00,,,0.00,LWC V2.10 B1813,2013-03-09 15:37:00,
2013-03-09 08:42:00,34.0,29.7,29.50,NNE,22,0.0,0.0,85,0.00,,,0.00,LWC V2.10 B1813,2013-03-09 15:42:00,
2013-03-09 08:47:00,34.0,29.8,29.50,NW,315,0.0,0.0,85,0.00,,,0.00,LWC V2.10 B1813,2013-03-09 15:47:00,
2013-03-09 08:52:00,34.3,30.2,29.50,NW,315,0.0,0.0,85,0.00,,,0.00,LWC V2.10 B1813,2013-03-09 15:52:00,
2013-03-09 08:57:00,34.3,30.2,29.50,NNE,22,0.0,0.0,85,0.00,,,0.00,LWC V2.10 B1813,2013-03-09 15:57:00,
2013-03-09 09:02:00,34.3,30.2,29.50,NNE,22,0.0,0.0,85,0.00,,,0.00,LWC V2.10 B1813,2013-03-09 16:02:00,
2013-03-09 09:07:00,34.5,30.1,29.50,NNE,22,0.0,0.0,84,0.00,,,0.00,LWC V2.10 B1813,2013-03-09 16:07:00,
2013-03-09 09:12:00,34.5,30.3,29.50,NNE,22,0.0,0.0,84,0.00,,,0.00,LWC V2.10 B1813,2013-03-09 16:12:00,
2013-03-09 09:17:00,34.9,30.5,29.50,NNE,22,0.0,0.0,84,0.00,,,0.00,LWC V2.10 B1813,2013-03-09 16:17:00,
2013-03-09 09:22:00,34.9,30.5,29.50,NNE,22,0.0,0.0,84,0.00,,,0.00,LWC V2.10 B1813,2013-03-09 16:22:00,
2013-03-09 09:27:00,35.1,30.6,29.51,NE,45,0.0,0.0,84,0.00,,,0.00,LWC V2.10 B1813,2013-03-09 16:27:00,
2013-03-09 09:32:00,35.4,31.0,29.50,NE,45,0.0,0.0,84,0.00,,,0.00,LWC V2.10 B1813,2013-03-09 16:32:00,
2013-03-09 09:37:00,35.4,30.7,29.50,NE,45,0.0,0.0,83,0.02,,,0.02,LWC V2.10 B1813,2013-03-09 16:37:00,
2013-03-09 09:42:00,35.4,30.7,29.50,NE,45,0.0,0.0,83,0.02,,,0.02,LWC V2.10 B1813,2013-03-09 16:42:00,
2013-03-09 09:47:00,35.4,30.7,29.51,NE,45,0.0,0.0,83,0.04,,,0.04,LWC V2.10 B1813,2013-03-09 16:47:00,
2013-03-09 09:52:00,35.4,30.7,29.51,ENE,67,0.0,0.0,83,0.04,,,0.04,LWC V2.10 B1813,2013-03-09 16:52:00,
2013-03-09 09:57:00,35.4,30.7,29.51,ENE,67,0.0,0.0,83,0.04,,,0.04,LWC V2.10 B1813,2013-03-09 16:57:00,
2013-03-09 10:02:00,35.6,30.6,29.51,NE,45,0.0,0.0,82,0.06,,,0.06,LWC V2.10 B1813,2013-03-09 17:02:00,
2013-03-09 10:07:00,35.8,30.8,29.51,NE,45,0.0,0.0,82,0.06,,,0.06,LWC V2.10 B1813,2013-03-09 17:07:00,
2013-03-09 10:12:00,35.4,30.4,29.51,NNE,22,0.0,0.0,82,0.06,,,0.06,LWC V2.10 B1813,2013-03-09 17:12:00,
2013-03-09 10:17:00,35.4,30.1,29.51,NE,45,0.0,0.0,81,0.06,,,0.06,LWC V2.10 B1813,2013-03-09 17:17:00,
2013-03-09 10:22:00,35.4,30.1,29.51,NE,45,0.0,0.0,81,0.06,,,0.06,LWC V2.10 B1813,2013-03-09 17:22:00,
2013-03-09 10:27:00,35.4,29.8,29.52,NE,45,4.7,4.7,80,0.08,,,0.08,LWC V2.10 B1813,2013-03-09 17:27:00,
2013-03-09 10:32:00,35.4,29.8,29.52,NE,45,0.0,0.0,80,0.06,,,0.08,LWC V2.10 B1813,2013-03-09 17:32:00,
2013-03-09 10:37:00,35.2,29.7,29.52,NNE,22,0.0,0.0,80,0.08,,,0.10,LWC V2.10 B1813,2013-03-09 17:37:00,
2013-03-09 10:42:00,35.2,29.7,29.52,ENE,67,0.0,0.0,80,0.06,,,0.10,LWC V2.10 B1813,2013-03-09 17:42:00,
2013-03-09 10:47:00,35.4,29.8,29.52,NNE,22,0.0,0.0,80,0.06,,,0.10,LWC V2.10 B1813,2013-03-09 17:47:00,
2013-03-09 10:52:00,35.8,30.2,29.52,NE,45,0.0,0.0,80,0.08,,,0.10,LWC V2.10 B1813,2013-03-09 17:52:00,
2013-03-09 10:57:00,35.8,29.9,29.52,ENE,67,5.6,5.6,79,0.06,,,0.12,LWC V2.10 B1813,2013-03-09 17:57:00,
2013-03-09 11:02:00,35.8,29.9,29.52,NE,45,2.5,2.5,79,0.08,,,0.14,LWC V2.10 B1813,2013-03-09 18:02:00,
2013-03-09 11:08:00,35.8,29.9,29.52,NNE,22,0.0,0.0,79,0.08,,,0.14,LWC V2.10 B1813,2013-03-09 18:08:00,
2013-03-09 11:13:00,35.6,29.7,29.53,NE,45,0.0,0.0,79,0.08,,,0.14,LWC V2.10 B1813,2013-03-09 18:13:00,
2013-03-09 11:18:00,35.8,30.2,29.53,NNE,22,0.0,0.0,80,0.08,,,0.14,LWC V2.10 B1813,2013-03-09 18:18:00,
2013-03-09 11:23:00,35.8,30.2,29.53,NNE,22,0.0,0.0,80,0.08,,,0.14,LWC V2.10 B1813,2013-03-09 18:23:00,
2013-03-09 11:28:00,36.0,30.4,29.53,NNE,22,0.0,0.0,80,0.06,,,0.14,LWC V2.10 B1813,2013-03-09 18:28:00,
2013-03-09 11:33:00,36.1,30.2,29.53,NNE,22,0.0,0.0,79,0.06,,,0.16,LWC V2.10 B1813,2013-03-09 18:33:00,
2013-03-09 11:38:00,36.1,30.2,29.53,NNE,22,0.0,0.0,79,0.08,,,0.18,LWC V2.10 B1813,2013-03-09 18:38:00,
2013-03-09 11:43:00,36.0,29.7,29.53,ENE,67,7.6,7.6,78,0.08,,,0.18,LWC V2.10 B1813,2013-03-09 18:43:00,
2013-03-09 11:48:00,35.8,29.9,29.53,NNE,22,0.0,0.0,79,0.08,,,0.18,LWC V2.10 B1813,2013-03-09 18:48:00,
2013-03-09 11:53:00,35.8,29.9,29.54,NNE,22,0.0,0.0,79,0.06,,,0.18,LWC V2.10 B1813,2013-03-09 18:53:00,
2013-03-09 11:58:00,35.2,29.7,29.55,North,0,0.0,0.0,80,0.04,,,0.18,LWC V2.10 B1813,2013-03-09 18:58:00,
2013-03-09 12:03:00,34.9,29.3,29.54,NE,45,3.4,3.4,80,0.04,,,0.18,LWC V2.10 B1813,2013-03-09 19:03:00,
2013-03-09 12:08:00,34.5,28.9,29.54,NNE,22,0.0,0.0,80,0.04,,,0.18,LWC V2.10 B1813,2013-03-09 19:08:00,
2013-03-09 12:13:00,34.3,29.0,29.54,ENE,67,2.5,2.5,81,0.06,,,0.20,LWC V2.10 B1813,2013-03-09 19:13:00,
2013-03-09 12:18:00,34.3,29.0,29.55,NNE,22,0.0,0.0,81,0.06,,,0.20,LWC V2.10 B1813,2013-03-09 19:18:00,
2013-03-09 12:23:00,34.3,29.0,29.54,NE,45,0.0,0.0,81,0.06,,,0.20,LWC V2.10 B1813,2013-03-09 19:23:00,
2013-03-09 12:28:00,34.3,29.0,29.54,NNE,22,0.0,0.0,81,0.06,,,0.20,LWC V2.10 B1813,2013-03-09 19:28:00,
2013-03-09 12:33:00,34.3,29.3,29.55,North,0,0.0,0.0,82,0.02,,,0.20,LWC V2.10 B1813,2013-03-09 19:33:00,
2013-03-09 12:38:00,34.3,29.3,29.55,NE,45,0.0,0.0,82,0.04,,,0.20,LWC V2.10 B1813,2013-03-09 19:38:00,
2013-03-09 12:43:00,34.3,29.3,29.55,NE,45,0.0,0.0,82,0.04,,,0.22,LWC V2.10 B1813,2013-03-09 19:43:00,
2013-03-09 12:48:00,34.3,29.3,29.55,NE,45,0.0,0.0,82,0.04,,,0.22,LWC V2.10 B1813,2013-03-09 19:48:00,
2013-03-09 12:53:00,34.2,29.4,29.55,NNE,22,0.0,0.0,83,0.04,,,0.22,LWC V2.10 B1813,2013-03-09 19:53:00,
2013-03-09 12:58:00,34.3,29.6,29.55,NE,45,0.0,0.0,83,0.04,,,0.22,LWC V2.10 B1813,2013-03-09 19:58:00,
2013-03-09 13:03:00,34.3,29.3,29.55,NNE,22,0.0,0.0,82,0.04,,,0.22,LWC V2.10 B1813,2013-03-09 20:03:00,
2013-03-09 13:08:00,34.3,29.3,29.55,NNW,337,0.0,0.0,82,0.04,,,0.22,LWC V2.10 B1813,2013-03-09 20:08:00,
2013-03-09 13:13:00,34.5,29.5,29.55,NE,45,0.0,0.0,82,0.02,,,0.22,LWC V2.10 B1813,2013-03-09 20:13:00,
2013-03-09 13:18:00,34.5,29.5,29.56,NE,45,0.0,0.0,82,0.04,,,0.22,LWC V2.10 B1813,2013-03-09 20:18:00,
2013-03-09 13:23:00,34.3,29.3,29.55,NE,45,0.0,0.0,82,0.04,,,0.24,LWC V2.10 B1813,2013-03-09 20:23:00,
2013-03-09 13:28:00,34.3,29.0,29.55,NE,45,0.0,0.0,81,0.04,,,0.24,LWC V2.10 B1813,2013-03-09 20:28:00,
2013-03-09 13:33:00,34.3,28.8,29.56,North,0,0.0,0.0,80,0.02,,,0.24,LWC V2.10 B1813,2013-03-09 20:33:00,
2013-03-09 13:38:00,34.0,28.4,29.56,NE,45,0.0,0.0,80,0.02,,,0.24,LWC V2.10 B1813,2013-03-09 20:38:00,
2013-03-09 13:43:00,33.4,27.9,29.56,North,0,0.0,0.0,80,0.02,,,0.24,LWC V2.10 B1813,2013-03-09 20:43:00,
2013-03-09 13:48:00,33.4,27.9,29.56,NE,45,0.0,0.0,80,0.02,,,0.24,LWC V2.10 B1813,2013-03-09 20:48:00,
2013-03-09 13:53:00,33.3,27.7,29.55,NE,45,0.0,0.0,80,0.04,,,0.26,LWC V2.10 B1813,2013-03-09 20:53:00,
2013-03-09 13:58:00,33.3,28.0,29.55,NNE,22,0.0,0.0,81,0.04,,,0.26,LWC V2.10 B1813,2013-03-09 20:58:00,
2013-03-09 14:03:00,33.3,28.0,29.55,North,0,0.0,0.0,81,0.04,,,0.26,LWC V2.10 B1813,2013-03-09 21:03:00,
2013-03-09 14:08:00,33.3,28.0,29.56,NNW,337,0.0,0.0,81,0.04,,,0.26,LWC V2.10 B1813,2013-03-09 21:08:00,
2013-03-09 14:13:00,33.1,27.9,29.56,NE,45,0.0,0.0,81,0.04,,,0.26,LWC V2.10 B1813,2013-03-09 21:13:00,
2013-03-09 14:18:00,33.4,28.2,29.56,NE,45,0.0,0.0,81,0.02,,,0.26,LWC V2.10 B1813,2013-03-09 21:18:00,
2013-03-09 14:23:00,33.6,28.3,29.56,NE,45,0.0,0.0,81,0.02,,,0.26,LWC V2.10 B1813,2013-03-09 21:23:00,
2013-03-09 14:28:00,33.6,28.3,29.57,NE,45,0.0,0.0,81,0.02,,,0.26,LWC V2.10 B1813,2013-03-09 21:28:00,
2013-03-09 14:33:00,34.0,28.7,29.57,NNE,22,0.0,0.0,81,0.02,,,0.26,LWC V2.10 B1813,2013-03-09 21:33:00,
2013-03-09 14:38:00,34.3,28.8,29.57,NE,45,0.0,0.0,80,0.02,,,0.26,LWC V2.10 B1813,2013-03-09 21:38:00,
2013-03-09 14:43:00,34.9,29.3,29.57,NNE,22,0.0,0.0,80,0.02,,,0.26,LWC V2.10 B1813,2013-03-09 21:43:00,
2013-03-09 14:48:00,34.9,29.3,29.56,NE,45,0.0,0.0,80,0.02,,,0.26,LWC V2.10 B1813,2013-03-09 21:48:00,
2013-03-09 14:53:00,35.2,29.7,29.56,NE,45,0.0,0.0,80,0.00,,,0.26,LWC V2.10 B1813,2013-03-09 21:53:00,
2013-03-09 14:58:00,35.4,29.2,29.57,ENE,67,0.0,0.0,78,0.00,,,0.26,LWC V2.10 B1813,2013-03-09 21:58:00,
2013-03-09 15:03:00,35.2,28.7,29.57,NE,45,0.0,0.0,77,0.02,,,0.28,LWC V2.10 B1813,2013-03-09 22:03:00,
2013-03-09 15:08:00,35.4,28.9,29.57,NE,45,0.0,0.0,77,0.02,,,0.28,LWC V2.10 B1813,2013-03-09 22:08:00,
2013-03-09 15:13:00,35.4,28.5,29.57,NE,45,0.0,0.0,76,0.02,,,0.28,LWC V2.10 B1813,2013-03-09 22:13:00,
2013-03-09 15:18:00,35.8,29.2,29.57,NE,45,0.0,0.0,77,0.02,,,0.28,LWC V2.10 B1813,2013-03-09 22:18:00,
2013-03-09 15:23:00,35.8,28.9,29.58,NNE,22,0.0,0.0,76,0.02,,,0.28,LWC V2.10 B1813,2013-03-09 22:23:00,
2013-03-09 15:28:00,35.8,29.2,29.58,NNE,22,0.0,0.0,77,0.02,,,0.28,LWC V2.10 B1813,2013-03-09 22:28:00,
2013-03-09 15:33:00,35.8,29.2,29.58,NE,45,0.0,0.0,77,0.02,,,0.28,LWC V2.10 B1813,2013-03-09 22:33:00,
2013-03-09 15:38:00,35.8,29.2,29.58,NNE,22,0.0,0.0,77,0.02,,,0.28,LWC V2.10 B1813,2013-03-09 22:38:00,
2013-03-09 15:43:00,35.8,29.2,29.58,NE,45,0.0,0.0,77,0.02,,,0.28,LWC V2.10 B1813,2013-03-09 22:43:00,
2013-03-09 15:48:00,36.0,29.4,29.58,NE,45,0.0,0.0,77,0.02,,,0.28,LWC V2.10 B1813,2013-03-09 22:48:00,
2013-03-09 15:53:00,36.0,29.1,29.59,NE,45,0.0,0.0,76,0.02,,,0.28,LWC V2.10 B1813,2013-03-09 22:53:00,
2013-03-09 15:58:00,36.0,29.1,29.59,ESE,112,0.0,0.0,76,0.00,,,0.28,LWC V2.10 B1813,2013-03-09 22:58:00,
2013-03-09 16:03:00,35.8,29.2,29.59,SE,135,0.0,0.0,77,0.00,,,0.28,LWC V2.10 B1813,2013-03-09 23:03:00,
2013-03-09 16:08:00,35.4,28.9,29.59,SE,135,0.0,0.0,77,0.00,,,0.28,LWC V2.10 B1813,2013-03-09 23:08:00,
2013-03-09 16:13:00,35.4,29.2,29.59,SE,135,0.0,0.0,78,0.00,,,0.28,LWC V2.10 B1813,2013-03-09 23:13:00,
2013-03-09 16:18:00,35.4,29.2,29.59,SE,135,0.0,0.0,78,0.00,,,0.28,LWC V2.10 B1813,2013-03-09 23:18:00,
2013-03-09 16:23:00,35.2,29.0,29.59,SSE,157,0.0,0.0,78,0.00,,,0.28,LWC V2.10 B1813,2013-03-09 23:23:00,
2013-03-09 16:28:00,35.4,29.2,29.60,SSE,157,0.0,0.0,78,0.00,,,0.28,LWC V2.10 B1813,2013-03-09 23:28:00,
2013-03-09 16:33:00,35.4,29.2,29.60,SSE,157,0.0,0.0,78,0.00,,,0.28,LWC V2.10 B1813,2013-03-09 23:33:00,
2013-03-09 16:38:00,35.4,29.2,29.60,NE,45,0.0,0.0,78,0.00,,,0.28,LWC V2.10 B1813,2013-03-09 23:38:00,
2013-03-09 16:43:00,35.2,28.7,29.60,NE,45,0.0,0.0,77,0.00,,,0.28,LWC V2.10 B1813,2013-03-09 23:43:00,
2013-03-09 16:48:00,35.2,28.7,29.61,NE,45,0.0,0.0,77,0.00,,,0.28,LWC V2.10 B1813,2013-03-09 23:48:00,
2013-03-09 16:53:00,35.2,28.5,29.61,NE,45,0.0,0.0,77,0.00,,,0.28,LWC V2.10 B1813,2013-03-09 23:53:00,
2013-03-09 16:58:00,34.9,28.3,29.61,NE,45,0.0,0.0,77,0.00,,,0.28,LWC V2.10 B1813,2013-03-09 23:58:00,
2013-03-09 17:03:00,35.2,28.4,29.62,NE,45,0.0,0.0,76,0.00,,,0.28,LWC V2.10 B1813,2013-03-10 00:03:00,
2013-03-09 17:08:00,35.4,28.2,29.62,NNE,22,0.0,0.0,75,0.00,,,0.28,LWC V2.10 B1813,2013-03-10 00:08:00,
2013-03-09 17:13:00,35.6,28.1,29.63,ESE,112,0.0,0.0,74,0.00,,,0.28,LWC V2.10 B1813,2013-03-10 00:13:00,
2013-03-09 17:18:00,35.4,27.9,29.63,NNE,22,0.0,0.0,73,0.00,,,0.28,LWC V2.10 B1813,2013-03-10 00:18:00,
2013-03-09 17:23:00,35.4,26.2,29.63,NNE,22,0.0,0.0,69,0.00,,,0.28,LWC V2.10 B1813,2013-03-10 00:23:00,
2013-03-09 17:28:00,35.8,27.0,29.63,NNE,22,0.0,0.0,70,0.00,,,0.28,LWC V2.10 B1813,2013-03-10 00:28:00,
2013-03-09 17:33:00,35.4,26.6,29.63,NNE,22,0.0,0.0,70,0.00,,,0.28,LWC V2.10 B1813,2013-03-10 00:33:00,
2013-03-09 17:38:00,35.1,26.6,29.63,NNE,22,0.0,0.0,71,0.00,,,0.28,LWC V2.10 B1813,2013-03-10 00:38:00,
2013-03-09 17:43:00,34.7,26.2,29.63,NNE,22,0.0,0.0,71,0.00,,,0.28,LWC V2.10 B1813,2013-03-10 00:43:00,
2013-03-09 17:48:00,34.3,26.1,29.64,NNE,22,0.0,0.0,73,0.00,,,0.28,LWC V2.10 B1813,2013-03-10 00:48:00,
2013-03-09 17:53:00,33.6,26.1,29.65,NNE,22,0.0,0.0,74,0.00,,,0.28,LWC V2.10 B1813,2013-03-10 00:53:00,
2013-03-09 17:58:00,33.4,26.0,29.65,NNE,22,0.0,0.0,74,0.00,,,0.28,LWC V2.10 B1813,2013-03-10 00:58:00,
2013-03-09 18:03:00,33.1,25.6,29.65,NNE,22,0.0,0.0,74,0.00,,,0.28,LWC V2.10 B1813,2013-03-10 01:03:00,
2013-03-09 18:08:00,33.6,24.1,29.66,NNE,22,0.0,0.0,68,0.00,,,0.28,LWC V2.10 B1813,2013-03-10 01:08:00,
2013-03-09 18:13:00,34.5,23.2,29.66,NE,45,0.0,0.0,63,0.00,,,0.28,LWC V2.10 B1813,2013-03-10 01:13:00,
2013-03-09 18:18:00,35.1,23.4,29.66,NE,45,0.0,0.0,61,0.00,,,0.28,LWC V2.10 B1813,2013-03-10 01:18:00,
2013-03-09 18:23:00,35.2,23.2,29.67,NE,45,0.0,0.0,61,0.00,,,0.28,LWC V2.10 B1813,2013-03-10 01:23:00,
2013-03-09 18:28:00,34.9,22.8,29.67,NE,45,0.0,0.0,61,0.00,,,0.28,LWC V2.10 B1813,2013-03-10 01:28:00,
2013-03-09 18:33:00,34.5,22.5,29.67,NE,45,0.0,0.0,62,0.00,,,0.28,LWC V2.10 B1813,2013-03-10 01:33:00,
2013-03-09 18:38:00,34.2,22.5,29.68,NE,45,0.0,0.0,62,0.00,,,0.28,LWC V2.10 B1813,2013-03-10 01:38:00,
2013-03-09 18:43:00,33.6,21.9,29.69,NE,45,0.0,0.0,62,0.00,,,0.28,LWC V2.10 B1813,2013-03-10 01:43:00,
2013-03-09 18:48:00,32.9,21.8,29.69,NE,45,0.0,0.0,63,0.00,,,0.28,LWC V2.10 B1813,2013-03-10 01:48:00,
2013-03-09 18:53:00,32.5,21.3,29.69,NE,45,0.0,0.0,63,0.00,,,0.28,LWC V2.10 B1813,2013-03-10 01:53:00,
2013-03-09 18:58:00,32.2,21.0,29.70,NE,45,0.0,0.0,63,0.00,,,0.28,LWC V2.10 B1813,2013-03-10 01:58:00,
2013-03-09 19:03:00,31.8,20.7,29.70,NE,45,0.0,0.0,63,0.00,,,0.28,LWC V2.10 B1813,2013-03-10 02:03:00,
2013-03-09 19:08:00,32.2,20.6,29.70,NE,45,0.0,0.0,62,0.00,,,0.28,LWC V2.10 B1813,2013-03-10 02:08:00,
2013-03-09 19:13:00,32.2,20.6,29.70,NE,45,0.0,0.0,62,0.00,,,0.28,LWC V2.10 B1813,2013-03-10 02:13:00,
2013-03-09 19:18:00,32.7,20.1,29.70,NE,45,0.0,0.0,59,0.00,,,0.28,LWC V2.10 B1813,2013-03-10 02:18:00,
2013-03-09 19:23:00,33.1,20.3,29.70,NE,45,0.0,0.0,59,0.00,,,0.28,LWC V2.10 B1813,2013-03-10 02:23:00,
2013-03-09 19:28:00,33.1,20.3,29.71,NE,45,0.0,0.0,59,0.00,,,0.28,LWC V2.10 B1813,2013-03-10 02:28:00,
2013-03-09 19:33:00,32.5,20.6,29.71,NE,45,0.0,0.0,61,0.00,,,0.28,LWC V2.10 B1813,2013-03-10 02:33:00,
2013-03-09 19:38:00,31.3,19.8,29.71,NE,45,0.0,0.0,62,0.00,,,0.28,LWC V2.10 B1813,2013-03-10 02:38:00,
2013-03-09 19:43:00,30.9,19.8,29.72,NE,45,0.0,0.0,63,0.00,,,0.28,LWC V2.10 B1813,2013-03-10 02:43:00,
2013-03-09 19:48:00,30.2,19.0,29.72,NE,45,0.0,0.0,63,0.00,,,0.28,LWC V2.10 B1813,2013-03-10 02:48:00,
2013-03-09 19:53:00,30.9,19.4,29.72,NE,45,0.0,0.0,62,0.00,,,0.28,LWC V2.10 B1813,2013-03-10 02:53:00,
2013-03-09 19:58:00,31.1,19.6,29.72,NE,45,0.0,0.0,62,0.00,,,0.28,LWC V2.10 B1813,2013-03-10 02:58:00,
2013-03-09 20:03:00,30.7,19.2,29.73,NE,45,0.0,0.0,62,0.00,,,0.28,LWC V2.10 B1813,2013-03-10 03:03:00,
2013-03-09 20:08:00,30.6,19.4,29.73,NE,45,0.0,0.0,63,0.00,,,0.28,LWC V2.10 B1813,2013-03-10 03:08:00,
2013-03-09 20:13:00,29.8,19.1,29.73,NE,45,0.0,0.0,64,0.00,,,0.28,LWC V2.10 B1813,2013-03-10 03:13:00,
2013-03-09 20:18:00,29.1,18.8,29.73,NE,45,0.0,0.0,65,0.00,,,0.28,LWC V2.10 B1813,2013-03-10 03:18:00,
2013-03-09 20:23:00,29.1,18.4,29.73,NE,45,0.0,0.0,64,0.00,,,0.28,LWC V2.10 B1813,2013-03-10 03:23:00,
2013-03-09 20:28:00,30.4,19.2,29.73,NE,45,0.0,0.0,63,0.00,,,0.28,LWC V2.10 B1813,2013-03-10 03:28:00,
2013-03-09 20:34:00,31.1,19.2,29.74,NE,45,0.0,0.0,62,0.00,,,0.28,LWC V2.10 B1813,2013-03-10 03:34:00,
2013-03-09 20:39:00,31.1,19.2,29.74,NE,45,0.0,0.0,61,0.00,,,0.28,LWC V2.10 B1813,2013-03-10 03:39:00,
2013-03-09 20:44:00,32.0,18.9,29.75,NE,45,0.0,0.0,58,0.00,,,0.28,LWC V2.10 B1813,2013-03-10 03:44:00,
2013-03-09 20:49:00,32.7,19.4,29.75,NE,45,0.0,0.0,57,0.00,,,0.28,LWC V2.10 B1813,2013-03-10 03:49:00,
2013-03-09 20:54:00,32.9,18.8,29.75,NE,45,0.0,0.0,56,0.00,,,0.28,LWC V2.10 B1813,2013-03-10 03:54:00,
2013-03-09 20:59:00,32.9,18.8,29.76,NE,45,0.0,0.0,56,0.00,,,0.28,LWC V2.10 B1813,2013-03-10 03:59:00,
2013-03-09 21:04:00,31.6,18.9,29.76,NE,45,0.0,0.0,58,0.00,,,0.28,LWC V2.10 B1813,2013-03-10 04:04:00,
2013-03-09 21:09:00,31.3,18.2,29.76,NE,45,0.0,0.0,58,0.00,,,0.28,LWC V2.10 B1813,2013-03-10 04:09:00,
2013-03-09 21:14:00,30.9,18.2,29.76,NE,45,0.0,0.0,59,0.00,,,0.28,LWC V2.10 B1813,2013-03-10 04:14:00,
2013-03-09 21:19:00,30.7,18.3,29.76,NE,45,0.0,0.0,60,0.00,,,0.28,LWC V2.10 B1813,2013-03-10 04:19:00,
2013-03-09 21:24:00,31.1,18.0,29.76,NE,45,0.0,0.0,58,0.00,,,0.28,LWC V2.10 B1813,2013-03-10 04:24:00,
2013-03-09 21:29:00,31.6,18.1,29.77,NE,45,0.0,0.0,57,0.00,,,0.28,LWC V2.10 B1813,2013-03-10 04:29:00,
2013-03-09 21:34:00,31.8,17.9,29.77,NE,45,0.0,0.0,56,0.00,,,0.28,LWC V2.10 B1813,2013-03-10 04:34:00,
2013-03-09 21:39:00,31.8,17.9,29.77,NE,45,0.0,0.0,56,0.00,,,0.28,LWC V2.10 B1813,2013-03-10 04:39:00,
2013-03-09 21:44:00,31.8,17.4,29.77,NE,45,0.0,0.0,55,0.00,,,0.28,LWC V2.10 B1813,2013-03-10 04:44:00,
2013-03-09 21:49:00,32.2,16.9,29.77,NE,45,0.0,0.0,53,0.00,,,0.28,LWC V2.10 B1813,2013-03-10 04:49:00,
2013-03-09 21:54:00,32.2,16.9,29.78,NE,45,0.0,0.0,53,0.00,,,0.28,LWC V2.10 B1813,2013-03-10 04:54:00,
2013-03-09 21:59:00,32.2,16.9,29.78,NE,45,0.0,0.0,53,0.00,,,0.28,LWC V2.10 B1813,2013-03-10 04:59:00,
2013-03-09 22:00:00,32.2,16.9,29.78,NE,45,0.0,0.0,53,0.00,,,0.28,LWC V2.10 B1813,2013-03-10 05:00:00,
2013-03-09 22:05:00,32.2,16.9,29.78,NE,45,0.0,0.0,53,0.00,,,0.28,LWC V2.10 B1813,2013-03-10 05:05:00,
2013-03-09 22:10:00,32.2,16.0,29.79,NE,45,0.0,0.0,52,0.00,,,0.28,LWC V2.10 B1813,2013-03-10 05:10:00,
2013-03-09 22:15:00,31.8,15.7,29.79,NE,45,0.0,0.0,51,0.00,,,0.28,LWC V2.10 B1813,2013-03-10 05:15:00,
2013-03-09 22:20:00,32.0,15.4,29.79,NE,45,0.0,0.0,50,0.00,,,0.28,LWC V2.10 B1813,2013-03-10 05:20:00,
2013-03-09 22:25:00,32.2,16.0,29.79,NE,45,0.0,0.0,51,0.00,,,0.28,LWC V2.10 B1813,2013-03-10 05:25:00,
2013-03-09 22:30:00,31.8,16.1,29.79,NE,45,0.0,0.0,52,0.00,,,0.28,LWC V2.10 B1813,2013-03-10 05:30:00,
2013-03-09 22:35:00,31.5,15.8,29.79,NE,45,0.0,0.0,52,0.00,,,0.28,LWC V2.10 B1813,2013-03-10 05:35:00,
2013-03-09 22:40:00,30.9,15.9,29.79,NE,45,0.0,0.0,53,0.00,,,0.28,LWC V2.10 B1813,2013-03-10 05:40:00,
2013-03-09 22:45:00,30.9,15.3,29.79,NE,45,0.0,0.0,52,0.00,,,0.28,LWC V2.10 B1813,2013-03-10 05:45:00,
2013-03-09 22:50:00,31.3,14.8,29.79,NE,45,0.0,0.0,50,0.00,,,0.28,LWC V2.10 B1813,2013-03-10 05:50:00,
2013-03-09 22:55:00,31.6,14.6,29.78,NE,45,0.0,0.0,50,0.00,,,0.28,LWC V2.10 B1813,2013-03-10 05:55:00,
2013-03-09 23:00:00,31.6,15.1,29.78,NE,45,0.0,0.0,50,0.00,,,0.28,LWC V2.10 B1813,2013-03-10 06:00:00,
2013-03-09 23:05:00,31.3,14.8,29.78,NE,45,0.0,0.0,50,0.00,,,0.28,LWC V2.10 B1813,2013-03-10 06:05:00,
2013-03-09 23:10:00,30.9,14.6,29.78,NE,45,0.0,0.0,50,0.00,,,0.28,LWC V2.10 B1813,2013-03-10 06:10:00,
2013-03-09 23:15:00,30.7,14.7,29.78,NE,45,0.0,0.0,51,0.00,,,0.28,LWC V2.10 B1813,2013-03-10 06:15:00,
2013-03-09 23:20:00,30.4,14.4,29.78,NE,45,0.0,0.0,51,0.00,,,0.28,LWC V2.10 B1813,2013-03-10 06:20:00,
2013-03-09 23:23:00,30.2,14.6,29.78,NE,45,0.0,0.0,52,0.00,,,0.28,LWC V2.10 B1813,2013-03-10 06:23:00,
2013-03-09 23:28:00,30.4,14.4,29.77,NE,45,0.0,0.0,51,0.00,,,0.28,LWC V2.10 B1813,2013-03-10 06:28:00,
2013-03-09 23:33:00,30.0,14.5,29.77,NE,45,0.0,0.0,52,0.00,,,0.28,LWC V2.10 B1813,2013-03-10 06:33:00,
2013-03-09 23:38:00,29.7,14.2,29.78,NE,45,0.0,0.0,52,0.00,,,0.28,LWC V2.10 B1813,2013-03-10 06:38:00,
2013-03-09 23:43:00,29.5,13.6,29.78,NE,45,0.0,0.0,51,0.00,,,0.28,LWC V2.10 B1813,2013-03-10 06:43:00,
2013-03-09 23:48:00,29.8,14.3,29.78,NE,45,0.0,0.0,52,0.00,,,0.28,LWC V2.10 B1813,2013-03-10 06:48:00,
2013-03-09 23:53:00,29.3,13.8,29.78,NE,45,0.0,0.0,52,0.00,,,0.28,LWC V2.10 B1813,2013-03-10 06:53:00,
2013-03-09 23:58:00,29.8,13.9,29.78,NE,45,0.0,0.0,51,0.00,,,0.28,LWC V2.10 B1813,2013-03-10 06:58:00,